sat.trackr.live / text

‹ back to catalog

ICEYE-X25

NORAD 56963 · 2023-084AH

PAYLOAD ACTIVE UNKNOWN

§ Identity

Operator
Country
FIN
Launch date
2023-06-12
Launch site
AFWTR
Launch vehicle
Mass (kg)
RCS (m²)

External: N2YO · Heavens-Above · Gunter

§ Orbital elements

Epoch: 2026-05-25T03:34:47.708256Z

Period
92.41 min
Inclination
97.5859°
Eccentricity
0.0002613
Mean motion
15.58240228 rev/d
Perigee alt
391.0 km
Apogee alt
394.5 km
Semi-major
6,770.9 km
B*
5.0606e-4
RAAN
289.8461°
Arg perigee
41.4625°
Mean anomaly
318.6828°
Rev number
16,438

§ Raw data

ICEYE-X251 56963U 23084AH  26145.14916329  .00038264  00000+0  50606-3 0  99912 56963  97.5859 289.8461 0002613  41.4625 318.6828 15.58240228164381

JSON: /api/v1/satellites/56963 · /tle

For live sub-satellite position, see the globe view (requires WebGL).

§ Visibility from observer

Set your observer location to see the next 7 days of passes ≥ 10°. The values pass through the URL so the page stays shareable.

No JS? Fill the form by hand. The geolocation button needs JavaScript.

§ Radio — SatNOGS DB

ModeDescriptionDownlinkUplink
BPSK S-band telemetry 2.264 GHz

1 transmitter · refreshed weekly from db.satnogs.org